Weather observations for the past three days for
N. Kingston / Quonset
Imperial (Metric)
Date Time (edt) Wind (mph) Vis. (mi.) Weather Sky Cond. Temperature (ºF) Relative Humidity Wind Chill (°F) Heat Index (°F) Pressure Precipitation (in)
Air Dwpt 6 hour altimeter (in) sea level (mb) 1 hr 3 hr 6 hr
Max. Min.
22 15:50 S 8 7.00 Overcast OVC012 77 71.6 83% 78 30 0.0
22 14:50 NE 7 7.00 Overcast OVC014 77 71.6 83% 78 30.01 0.0
22 12:50 NE 7 7.00 Mostly Cloudy BKN014 BKN019 77 71.6 83% 78 30.03 0.0
22 11:50 E 8 8.00 Overcast OVC009 73.4 69.8 89% 30.04 0.0
22 10:50 NE 6 7.00 Overcast OVC009 75.2 71.6 89% 75 30.05 0.0
22 09:50 NE 5 6.00 Fog/Mist OVC006 73.4 71.6 94% 30.06 0.0
22 08:50 Calm 5.00 Overcast OVC006 71.6 69.8 94% 30.07 0.0
21 22:50 Vrbl 6 10.00 Mostly Cloudy SCT004 BKN055 71.6 71.6 100% 30.14 0.0
21 21:50 SE 6 10.00 Overcast SCT080 BKN095 OVC110 71.6 71.6 100% 30.13 0.0
21 20:50 SE 7 6.00 Thunderstorm in Vicinity Light Rain Fog/Mist FEW010 BKN070 BKN110 73.4 71.6 94% 30.15 0.0
21 19:50 Vrbl 6 3.00 Thunderstorm Light Rain Fog/Mist OVC022 73.4 71.6 94% 30.17 0.0
21 18:50 Calm 5.00 Rain Fog/Mist BKN020 OVC034 73.4 71.6 94% 30.14 0.0
21 17:50 S 9 7.00 Light Rain Fog/Mist BKN030 OVC060 75.2 71.6 89% 75 30.13 0.0
21 16:50 S 10 8.00 Overcast BKN025 BKN034 OVC100 73.4 71.6 94% 30.13 0.0
21 15:50 S 9 8.00 Thunderstorm BKN039 BKN039 OVC070 77 73.4 89% 78 30.13 0.0
21 14:50 SE 14 10.00 Thunderstorm BKN048 BKN055 82.4 71.6 70% 87 30.13 0.0
21 13:50 S 9 10.00 Fair CLR 84.2 71.6 66% 90 30.14 0.0
21 12:50 S 7 10.00 Fair CLR 84.2 71.6 66% 90 30.16 0.0
21 11:50 S 6 10.00 Fair CLR 82.4 71.6 70% 87 30.17 0.0
21 10:50 Calm 10.00 Fair CLR 78.8 71.6 79% 82 30.17 0.0
21 09:50 Calm 10.00 Fair CLR 78.8 71.6 79% 82 30.18 0.0
21 07:50 SW 6 10.00 Fair CLR 75.2 68 78% 76 30.19 0.0
20 22:50 SW 8 10.00 Partly Cloudy FEW041 SCT060 77 69.8 79% 79 30.25 0.0
20 21:50 SW 8 10.00 Fair CLR 77 69.8 79% 79 30.25 0.0
20 20:50 SW 10 10.00 Fair CLR 78.8 69.8 74% 81 30.22 0.0
20 19:50 S 10 10.00 Fair CLR 80.6 69.8 70% 84 30.2 0.0
20 17:50 SW 12 10.00 Fair CLR 87.8 73.4 62% 96 30.19 0.0
20 16:50 SW 15 10.00 Fair CLR 87.8 71.6 59% 94 30.2 0.0
20 15:50 SW 14 10.00 Fair CLR 86 71.6 62% 92 30.22 0.0
20 14:50 SW 12 10.00 Fair CLR 86 71.6 62% 92 30.24 0.0
20 13:50 S 14 10.00 Fair CLR 89.6 69.8 52% 95 30.25 0.0
20 12:50 SW 15 10.00 A Few Clouds FEW060 87.8 69.8 55% 93 30.27 0.0
20 11:50 SW 15 10.00 Mostly Cloudy BKN060 84.2 69.8 62% 88 30.28 0.0
20 10:50 SW 13 10.00 Fair CLR 84.2 69.8 62% 88 30.28 0.0
20 07:50 SW 8 10.00 Fair CLR 75.2 66.2 74% 77 30.29 0.0
Date Time (edt) Wind (mph) Vis. (mi.) Weather Sky Cond. Air Dwpt Max. Min. Relative Humidity Wind Chill (°F) Heat Index (°F) altimeter (in) sea level (mb) 1 hr 3 hr 6 hr
6 hour
Temperature (ºF) Pressure Precipitation (in)